Regional Weather Roundup
Issued by NWS

Home | Current Version | Previous Version | Graphics & Text | Print | Product List | Glossary On
Versions: 1 2 3 4 5 6 7 8 9 10 11 12 13 14 15 16 17 18 19 20 21 22 23 24 25 26 27 28 29 30 31 32 33 34 35 36 37 38 39 40 41 42 43 44 45 46 47 48 49 50
000
ASUS43 KFSD 180610
RWRSD

WEATHER ROUNDUP FOR SOUTH DAKOTA
NATIONAL WEATHER SERVICE SIOUX FALLS SD
1200 AM CST THU JAN 18 2018

NOTE: "FAIR" INDICATES FEW OR NO CLOUDS BELOW 12,000 FEET WITH NO
SIGNIFICANT WEATHER AND/OR OBSTRUCTIONS TO VISIBILITY.


SDZ001>005-009-010-012>017-180700-
NORTHWEST AND NORTH CENTRAL SOUTH DAKOTA

CITY           SKY/WX    TMP DP  RH WIND       PRES   REMARKS
BUFFALO          N/A     32  22  66 W9        29.91F WCI  24
FAITH            N/A     27  20  75 SW13      30.01F WCI  16
MOBRIDGE       PTCLDY    25  18  74 SE6       29.98F WCI  18
$$

SDZ012>016-024>037-041>051-057-063-072>074-180700-
SOUTHWEST AND SOUTH CENTRAL SOUTH DAKOTA

CITY           SKY/WX    TMP DP  RH WIND       PRES   REMARKS
RAPID CTY ARPT PTCLDY    31  19  61 CALM      30.04F
PIERRE         CLEAR     31  25  78 SW13      30.06F WCI  21
CUSTER         CLEAR     35  15  44 W12       30.08F WCI  27
ELLSWORTH AFB  PTCLDY    33  19  58 W9        30.02F WCI  25
PHILIP         CLEAR     24  20  84 W3        30.08F
PINE RIDGE     CLEAR     27  19  72 W7        30.12F WCI  19
SPEARFISH        N/A     43  18  36 SW17      30.02F
WINNER         FAIR      30  22  72 SW8       30.12F WCI  22
$$

SDZ004>011-016>023-039-040-180700-
NORTHEAST SOUTH DAKOTA

CITY           SKY/WX    TMP DP  RH WIND       PRES   REMARKS
ABERDEEN       MOCLDY    19  17  92 SW8       30.03F WCI   9
WATERTOWN      CLOUDY    23  19  85 SW10      30.03F WCI  12
BROOKINGS      CLOUDY    20  16  84 SW7       30.07F WCI  11
SISSETON         N/A     34  23  64 W18       29.96F WCI  23
$$

SDZ017-020-022-023-036>040-048>070-180700-
SOUTHEAST SOUTH DAKOTA

CITY           SKY/WX    TMP DP  RH WIND       PRES   REMARKS
SIOUX FALLS    CLOUDY    21  16  81 SW6       30.11F WCI  13
HURON          CLEAR     20  17  88 CALM      30.08F
CHAMBERLAIN    CLEAR     26  24  92 SW5       30.11F WCI  20
MITCHELL       CLEAR     23  19  85 SW5       30.12F WCI  17
YANKTON        CLOUDY    25  18  74 CALM      30.15S
$$

ABBREVIATIONS USED IN REMARKS
   TC - TEMPERATURE IN CELSIUS
  WCI - WIND CHILL INDEX
   HX - HEAT INDEX
  VSB - VISIBILITY





USA.gov is the U.S. government's official web portal to all federal, state and local government web resources and services.